Location: Newark
(45.8378°N, 5.5389°E)
Time: 20:44:58
(UTC+00:00)

YUBILEINY - Pass Details

Date: 16 December 2019
Orbit: 1478 x 1509 km, 82.5° (Epoch: 28 January)

Event Time Altitude Azimuth Distance (km) Brightness Sun altitude
Rises 06:31:18 0° 353° (N) 4,611 ? -7.1°
Reaches altitude 10° 06:34:22 10° 359° (N) 3,628 ? -6.6°
Maximum altitude 06:42:43 47° 72° (ENE) 1,879 ? -5.3°
Drops below altitude 10° 06:51:01 10° 145° (SE) 3,621 ? -4.1°
Sets 06:54:03 0° 151° (SSE) 4,601 ? -3.6°
